{"data":{"norad_id":57533,"intl_designator":"2023-115N","name":"STARLINK-30254","alt_names":[],"object_type":"PAYLOAD","status":"ACTIVE","operator":null,"country":"US","launch_date":"2023-08-08","launch_site_code":"AFWTR","launch_vehicle":null,"mission":null,"orbit_class":"UNKNOWN","rcs_meters":null,"size_class":null,"mass_kg":null,"dimensions":null,"purposes":["comms"],"wikipedia_slug":null,"has_3d_model":false,"image_url":null,"decayed_at":null,"tle_current":{"epoch":"2026-09-20T21:24:15.478848Z","epoch_age_seconds":93789,"freshness":"FRESH","line1":"1 57533U 23115N   26263.89184582  .00000631  00000+0  32442-4 0  9997","line2":"2 57533  43.0043  80.7620 0001548 271.2779  88.7895 15.27580398175214","mean_motion":15.27580398,"eccentricity":0.0001548,"inclination_deg":43.0043,"raan_deg":80.762,"arg_perigee_deg":271.2779,"mean_anomaly_deg":88.7895,"bstar":3.2442e-5,"rev_number":17521,"period_min":94.266724153134,"perigee_km":481.98579286155,"apogee_km":484.11001570792,"semimajor_km":6861.1849042847,"source":"CELESTRAK","updated_at":"2026-09-21T09:00:33.639293Z"}}}